Year,Month,Day,Hour,Minute,Value (Times are PST for temperature in C)
2014,08,24,00,00,12.50
2014,08,24,00,01,12.50
2014,08,24,00,02,12.50
2014,08,24,00,03,12.50
2014,08,24,00,04,12.40
2014,08,24,00,05,12.40
2014,08,24,00,06,12.40
2014,08,24,00,07,12.40
2014,08,24,00,08,12.40
2014,08,24,00,09,12.40
2014,08,24,00,10,12.40
2014,08,24,00,11,12.40
2014,08,24,00,12,12.40
2014,08,24,00,13,12.40
2014,08,24,00,14,12.40
2014,08,24,00,15,12.40
2014,08,24,00,16,12.40
2014,08,24,00,17,12.40
2014,08,24,00,18,12.40
2014,08,24,00,19,12.40
2014,08,24,00,20,12.40
2014,08,24,00,21,12.40
2014,08,24,00,22,12.40
2014,08,24,00,23,12.40
2014,08,24,00,24,12.40
2014,08,24,00,25,12.40
2014,08,24,00,26,12.30
2014,08,24,00,27,12.30
2014,08,24,00,28,12.30
2014,08,24,00,29,12.30
2014,08,24,00,30,12.30
2014,08,24,00,31,12.30
2014,08,24,00,32,12.30
2014,08,24,00,33,12.30
2014,08,24,00,34,12.30
2014,08,24,00,35,12.30
2014,08,24,00,36,12.30
2014,08,24,00,37,12.30
2014,08,24,00,38,12.20
2014,08,24,00,39,12.20
2014,08,24,00,40,12.20
2014,08,24,00,41,12.20
2014,08,24,00,42,12.20
2014,08,24,00,43,12.20
2014,08,24,00,44,12.10
2014,08,24,00,45,12.10
2014,08,24,00,46,12.10
2014,08,24,00,47,12.10
2014,08,24,00,48,12.10
2014,08,24,00,49,12.10
2014,08,24,00,50,12.10
2014,08,24,00,51,12.10
2014,08,24,00,52,12.10
2014,08,24,00,53,12.10
2014,08,24,00,54,12.10
2014,08,24,00,55,12.10
2014,08,24,00,56,12.10
2014,08,24,00,57,12.10
2014,08,24,00,58,12.10
2014,08,24,00,59,12.10
2014,08,24,01,00,12.10
2014,08,24,01,01,12.10
2014,08,24,01,02,12.10
2014,08,24,01,03,12.10
2014,08,24,01,04,12.10
2014,08,24,01,05,12.10
2014,08,24,01,06,12.10
2014,08,24,01,07,12.10
2014,08,24,01,08,12.10
2014,08,24,01,09,12.10
2014,08,24,01,10,12.10
2014,08,24,01,11,12.10
2014,08,24,01,12,12.10
2014,08,24,01,13,12.10
2014,08,24,01,14,12.20
2014,08,24,01,15,12.20
2014,08,24,01,16,12.20
2014,08,24,01,17,12.20
2014,08,24,01,18,12.20
2014,08,24,01,19,12.20
2014,08,24,01,20,12.20
2014,08,24,01,21,12.20
2014,08,24,01,22,12.20
2014,08,24,01,23,12.20
2014,08,24,01,24,12.20
2014,08,24,01,25,12.20
2014,08,24,01,26,12.20
2014,08,24,01,27,12.20
2014,08,24,01,28,12.20
2014,08,24,01,29,12.20
2014,08,24,01,30,12.20
2014,08,24,01,31,12.20
2014,08,24,01,32,12.20
2014,08,24,01,33,12.20
2014,08,24,01,34,12.20
2014,08,24,01,35,12.20
2014,08,24,01,36,12.20
2014,08,24,01,37,12.20
2014,08,24,01,38,12.20
2014,08,24,01,39,12.20
2014,08,24,01,40,12.20
2014,08,24,01,41,12.20
2014,08,24,01,42,12.20
2014,08,24,01,43,12.20
2014,08,24,01,44,12.20
2014,08,24,01,45,12.20
2014,08,24,01,46,12.20
2014,08,24,01,47,12.10
2014,08,24,01,48,12.20
2014,08,24,01,49,12.20
2014,08,24,01,50,12.20
2014,08,24,01,51,12.20
2014,08,24,01,52,12.10
2014,08,24,01,53,12.10
2014,08,24,01,54,12.10
2014,08,24,01,55,12.10
2014,08,24,01,56,12.10
2014,08,24,01,57,12.10
2014,08,24,01,58,12.10
2014,08,24,01,59,12.10
2014,08,24,02,00,12.10
2014,08,24,02,01,12.10
2014,08,24,02,02,12.10
2014,08,24,02,03,12.10
2014,08,24,02,04,12.10
2014,08,24,02,05,12.10
2014,08,24,02,06,12.10
2014,08,24,02,07,12.10
2014,08,24,02,08,12.10
2014,08,24,02,09,12.10
2014,08,24,02,10,12.10
2014,08,24,02,11,12.10
2014,08,24,02,12,12.10
2014,08,24,02,13,12.10
2014,08,24,02,14,12.10
2014,08,24,02,15,12.10
2014,08,24,02,16,12.10
2014,08,24,02,17,12.10
2014,08,24,02,18,12.10
2014,08,24,02,19,12.10
2014,08,24,02,20,12.10
2014,08,24,02,21,12.10
2014,08,24,02,22,12.10
2014,08,24,02,23,12.10
2014,08,24,02,24,12.10
2014,08,24,02,25,12.10
2014,08,24,02,26,12.10
2014,08,24,02,27,12.10
2014,08,24,02,28,12.10
2014,08,24,02,29,12.10
2014,08,24,02,30,12.10
2014,08,24,02,31,12.10
2014,08,24,02,32,12.10
2014,08,24,02,33,12.10
2014,08,24,02,34,12.10
2014,08,24,02,35,12.10
2014,08,24,02,36,12.10
2014,08,24,02,37,12.10
2014,08,24,02,38,12.10
2014,08,24,02,39,12.10
2014,08,24,02,40,12.10
2014,08,24,02,41,12.20
2014,08,24,02,42,12.20
2014,08,24,02,43,12.20
2014,08,24,02,44,12.20
2014,08,24,02,45,12.20
2014,08,24,02,46,12.20
2014,08,24,02,47,12.20
2014,08,24,02,48,12.20
2014,08,24,02,49,12.20
2014,08,24,02,50,12.20
2014,08,24,02,51,12.20
2014,08,24,02,52,12.20
2014,08,24,02,53,12.30
2014,08,24,02,54,12.30
2014,08,24,02,55,12.30
2014,08,24,02,56,12.30
2014,08,24,02,57,12.30
2014,08,24,02,58,12.30
2014,08,24,02,59,12.30
2014,08,24,03,00,12.30
2014,08,24,03,01,12.30
2014,08,24,03,02,12.30
2014,08,24,03,03,12.30
2014,08,24,03,04,12.30
2014,08,24,03,05,12.30
2014,08,24,03,06,12.30
2014,08,24,03,07,12.30
2014,08,24,03,08,12.30
2014,08,24,03,09,12.30
2014,08,24,03,10,12.30
2014,08,24,03,11,12.30
2014,08,24,03,12,12.30
2014,08,24,03,13,12.30
2014,08,24,03,14,12.30
2014,08,24,03,15,12.30
2014,08,24,03,16,12.20
2014,08,24,03,17,12.20
2014,08,24,03,18,12.20
2014,08,24,03,19,12.20
2014,08,24,03,20,12.10
2014,08,24,03,21,12.10
2014,08,24,03,22,12.10
2014,08,24,03,23,12.10
2014,08,24,03,24,12.10
2014,08,24,03,25,12.10
2014,08,24,03,26,12.00
2014,08,24,03,27,12.00
2014,08,24,03,28,12.00
2014,08,24,03,29,12.00
2014,08,24,03,30,11.90
2014,08,24,03,31,11.90
2014,08,24,03,32,11.90
2014,08,24,03,33,11.90
2014,08,24,03,34,11.90
2014,08,24,03,35,11.80
2014,08,24,03,36,11.80
2014,08,24,03,37,11.80
2014,08,24,03,38,11.80
2014,08,24,03,39,11.80
2014,08,24,03,40,11.80
2014,08,24,03,41,11.70
2014,08,24,03,42,11.70
2014,08,24,03,43,11.70
2014,08,24,03,44,11.70
2014,08,24,03,45,11.70
2014,08,24,03,46,11.70
2014,08,24,03,47,11.60
2014,08,24,03,48,11.60
2014,08,24,03,49,11.60
2014,08,24,03,50,11.60
2014,08,24,03,51,11.60
2014,08,24,03,52,11.60
2014,08,24,03,53,11.60
2014,08,24,03,54,11.50
2014,08,24,03,55,11.50
2014,08,24,03,56,11.50
2014,08,24,03,57,11.50
2014,08,24,03,58,11.50
2014,08,24,03,59,11.50
2014,08,24,04,00,11.50
2014,08,24,04,01,11.50
2014,08,24,04,02,11.50
2014,08,24,04,03,11.50
2014,08,24,04,04,11.40
2014,08,24,04,05,11.40
2014,08,24,04,06,11.40
2014,08,24,04,07,11.40
2014,08,24,04,08,11.40
2014,08,24,04,09,11.40
2014,08,24,04,10,11.30
2014,08,24,04,11,11.30
2014,08,24,04,12,11.30
2014,08,24,04,13,11.30
2014,08,24,04,14,11.30
2014,08,24,04,15,11.30
2014,08,24,04,16,11.20
2014,08,24,04,17,11.20
2014,08,24,04,18,11.20
2014,08,24,04,19,11.20
2014,08,24,04,20,11.20
2014,08,24,04,21,11.20
2014,08,24,04,22,11.10
2014,08,24,04,23,11.10
2014,08,24,04,24,11.10
2014,08,24,04,25,11.10
2014,08,24,04,26,11.00
2014,08,24,04,27,11.00
2014,08,24,04,28,11.00
2014,08,24,04,29,10.90
2014,08,24,04,30,10.90
2014,08,24,04,31,10.90
2014,08,24,04,32,10.90
2014,08,24,04,33,10.90
2014,08,24,04,34,10.80
2014,08,24,04,35,10.80
2014,08,24,04,36,10.80
2014,08,24,04,37,10.80
2014,08,24,04,38,10.70
2014,08,24,04,39,10.70
2014,08,24,04,40,10.70
2014,08,24,04,41,10.70
2014,08,24,04,42,10.70
2014,08,24,04,43,10.70
2014,08,24,04,44,10.70
2014,08,24,04,45,10.70
2014,08,24,04,46,10.70
2014,08,24,04,47,10.70
2014,08,24,04,48,10.60
2014,08,24,04,49,10.60
2014,08,24,04,50,10.60
2014,08,24,04,51,10.60
2014,08,24,04,52,10.60
2014,08,24,04,53,10.50
2014,08,24,04,54,10.50
2014,08,24,04,55,10.50
2014,08,24,04,56,10.50
2014,08,24,04,57,10.50
2014,08,24,04,58,10.50
2014,08,24,04,59,10.40
2014,08,24,05,00,10.40
2014,08,24,05,01,10.40
2014,08,24,05,02,10.40
2014,08,24,05,03,10.40
2014,08,24,05,04,10.40
2014,08,24,05,05,10.40
2014,08,24,05,06,10.40
2014,08,24,05,07,10.40
2014,08,24,05,08,10.40
2014,08,24,05,09,10.40
2014,08,24,05,10,10.40
2014,08,24,05,11,10.40
2014,08,24,05,12,10.40
2014,08,24,05,13,10.40
2014,08,24,05,14,10.40
2014,08,24,05,15,10.40
2014,08,24,05,16,10.40
2014,08,24,05,17,10.40
2014,08,24,05,18,10.40
2014,08,24,05,19,10.40
2014,08,24,05,20,10.30
2014,08,24,05,21,10.30
2014,08,24,05,22,10.30
2014,08,24,05,23,10.30
2014,08,24,05,24,10.30
2014,08,24,05,25,10.30
2014,08,24,05,26,10.30
2014,08,24,05,27,10.30
2014,08,24,05,28,10.30
2014,08,24,05,29,10.30
2014,08,24,05,30,10.20
2014,08,24,05,31,10.20
2014,08,24,05,32,10.20
2014,08,24,05,33,10.20
2014,08,24,05,34,10.20
2014,08,24,05,35,10.20
2014,08,24,05,36,10.20
2014,08,24,05,37,10.20
2014,08,24,05,38,10.20
2014,08,24,05,39,10.20
2014,08,24,05,40,10.20
2014,08,24,05,41,10.20
2014,08,24,05,42,10.20
2014,08,24,05,43,10.20
2014,08,24,05,44,10.10
2014,08,24,05,45,10.10
2014,08,24,05,46,10.10
2014,08,24,05,47,10.10
2014,08,24,05,48,10.10
2014,08,24,05,49,10.10
2014,08,24,05,50,10.10
2014,08,24,05,51,10.10
2014,08,24,05,52,10.10
2014,08,24,05,53,10.00
2014,08,24,05,54,10.00
2014,08,24,05,55,10.00
2014,08,24,05,56,10.00
2014,08,24,05,57,9.90
2014,08,24,05,58,9.90
2014,08,24,05,59,9.90
2014,08,24,06,00,10.00
2014,08,24,06,01,9.90
2014,08,24,06,02,9.90
2014,08,24,06,03,9.90
2014,08,24,06,04,9.90
2014,08,24,06,05,9.90
2014,08,24,06,06,9.90
2014,08,24,06,07,9.90
2014,08,24,06,08,9.90
2014,08,24,06,09,9.90
2014,08,24,06,10,9.90
2014,08,24,06,11,9.90
2014,08,24,06,12,9.90
2014,08,24,06,13,9.90
2014,08,24,06,14,9.90
2014,08,24,06,15,9.90
2014,08,24,06,16,9.90
2014,08,24,06,17,9.90
2014,08,24,06,18,9.90
2014,08,24,06,19,9.90
2014,08,24,06,20,9.90
2014,08,24,06,21,9.90
2014,08,24,06,22,9.90
2014,08,24,06,23,9.90
2014,08,24,06,24,9.90
2014,08,24,06,25,9.90
2014,08,24,06,26,9.90
2014,08,24,06,27,9.80
2014,08,24,06,28,9.90
2014,08,24,06,29,9.90
2014,08,24,06,30,9.90
2014,08,24,06,31,9.90
2014,08,24,06,32,9.90
2014,08,24,06,33,9.90
2014,08,24,06,34,10.00
2014,08,24,06,35,10.00
2014,08,24,06,36,10.00
2014,08,24,06,37,10.00
2014,08,24,06,38,10.00
2014,08,24,06,39,10.10
2014,08,24,06,40,10.10
2014,08,24,06,41,10.10
2014,08,24,06,42,10.00
2014,08,24,06,43,10.00
2014,08,24,06,44,10.00
2014,08,24,06,45,10.00
2014,08,24,06,46,10.00
2014,08,24,06,47,10.00
2014,08,24,06,48,10.00
2014,08,24,06,49,10.00
2014,08,24,06,50,10.00
2014,08,24,06,51,10.00
2014,08,24,06,52,10.00
2014,08,24,06,53,10.00
2014,08,24,06,54,10.00
2014,08,24,06,55,10.00
2014,08,24,06,56,10.00
2014,08,24,06,57,10.00
2014,08,24,06,58,10.00
2014,08,24,06,59,9.90
2014,08,24,07,00,9.90
2014,08,24,07,01,9.90
2014,08,24,07,02,9.90
2014,08,24,07,03,9.90
2014,08,24,07,04,9.90
2014,08,24,07,05,9.90
2014,08,24,07,06,9.90
2014,08,24,07,07,9.90
2014,08,24,07,08,9.90
2014,08,24,07,09,10.00
2014,08,24,07,10,10.00
2014,08,24,07,11,10.00
2014,08,24,07,12,10.00
2014,08,24,07,13,10.10
2014,08,24,07,14,10.10
2014,08,24,07,15,10.10
2014,08,24,07,16,10.10
2014,08,24,07,17,10.10
2014,08,24,07,18,10.20
2014,08,24,07,19,10.20
2014,08,24,07,20,10.20
2014,08,24,07,21,10.20
2014,08,24,07,22,10.20
2014,08,24,07,23,10.20
2014,08,24,07,24,10.30
2014,08,24,07,25,10.30
2014,08,24,07,26,10.30
2014,08,24,07,27,10.30
2014,08,24,07,28,10.30
2014,08,24,07,29,10.30
2014,08,24,07,30,10.30
2014,08,24,07,31,10.40
2014,08,24,07,32,10.40
2014,08,24,07,33,10.40
2014,08,24,07,34,10.40
2014,08,24,07,35,10.50
2014,08,24,07,36,10.50
2014,08,24,07,37,10.50
2014,08,24,07,38,10.60
2014,08,24,07,39,10.60
2014,08,24,07,40,10.60
2014,08,24,07,41,10.70
2014,08,24,07,42,10.70
2014,08,24,07,43,10.70
2014,08,24,07,44,10.70
2014,08,24,07,45,10.80
2014,08,24,07,46,10.80
2014,08,24,07,47,10.80
2014,08,24,07,48,10.90
2014,08,24,07,49,10.90
2014,08,24,07,50,10.90
2014,08,24,07,51,10.90
2014,08,24,07,52,11.00
2014,08,24,07,53,11.00
2014,08,24,07,54,11.10
2014,08,24,07,55,11.10
2014,08,24,07,56,11.20
2014,08,24,07,57,11.20
2014,08,24,07,58,11.20
2014,08,24,07,59,11.30
2014,08,24,08,00,11.30
2014,08,24,08,01,11.40
2014,08,24,08,02,11.50
2014,08,24,08,03,11.60
2014,08,24,08,04,11.60
2014,08,24,08,05,11.70
2014,08,24,08,06,11.80
2014,08,24,08,07,11.80
2014,08,24,08,08,11.90
2014,08,24,08,09,11.90
2014,08,24,08,10,12.00
2014,08,24,08,11,12.00
2014,08,24,08,12,12.10
2014,08,24,08,13,12.20
2014,08,24,08,14,12.20
2014,08,24,08,15,12.30
2014,08,24,08,16,12.40
2014,08,24,08,17,12.50
2014,08,24,08,18,12.60
2014,08,24,08,19,12.70
2014,08,24,08,20,12.80
2014,08,24,08,21,12.80
2014,08,24,08,22,12.90
2014,08,24,08,23,13.10
2014,08,24,08,24,13.20
2014,08,24,08,25,13.30
2014,08,24,08,26,13.40
2014,08,24,08,27,13.50
2014,08,24,08,28,13.50
2014,08,24,08,29,13.60
2014,08,24,08,30,13.70
2014,08,24,08,31,13.80
2014,08,24,08,32,13.80
2014,08,24,08,33,13.90
2014,08,24,08,34,13.90
2014,08,24,08,35,14.00
2014,08,24,08,36,14.10
2014,08,24,08,37,14.20
2014,08,24,08,38,14.30
2014,08,24,08,39,14.40
2014,08,24,08,40,14.50
2014,08,24,08,41,14.50
2014,08,24,08,42,14.60
2014,08,24,08,43,14.70
2014,08,24,08,44,14.80
2014,08,24,08,45,14.80
2014,08,24,08,46,14.90
2014,08,24,08,47,15.00
2014,08,24,08,48,15.00
2014,08,24,08,49,15.10
2014,08,24,08,50,15.10
2014,08,24,08,51,15.20
2014,08,24,08,52,15.30
2014,08,24,08,53,15.40
2014,08,24,08,54,15.50
2014,08,24,08,55,15.60
2014,08,24,08,56,15.70
2014,08,24,08,57,15.80
2014,08,24,08,58,15.90
2014,08,24,08,59,16.00
2014,08,24,09,00,16.10
2014,08,24,09,01,16.20
2014,08,24,09,02,16.30
2014,08,24,09,03,16.40
2014,08,24,09,04,16.50
2014,08,24,09,05,16.70
2014,08,24,09,06,16.80
2014,08,24,09,07,16.90
2014,08,24,09,08,16.90
2014,08,24,09,09,17.00
2014,08,24,09,10,17.00
2014,08,24,09,11,17.10
2014,08,24,09,12,17.20
2014,08,24,09,13,17.20
2014,08,24,09,14,17.30
2014,08,24,09,15,17.40
2014,08,24,09,16,17.50
2014,08,24,09,17,17.60
2014,08,24,09,18,17.60
2014,08,24,09,19,17.70
2014,08,24,09,20,17.80
2014,08,24,09,21,17.80
2014,08,24,09,22,17.90
2014,08,24,09,23,18.00
2014,08,24,09,24,18.00
2014,08,24,09,25,18.10
2014,08,24,09,26,18.10
2014,08,24,09,27,18.10
2014,08,24,09,28,18.20
2014,08,24,09,29,18.20
2014,08,24,09,30,18.30
2014,08,24,09,31,18.30
2014,08,24,09,32,18.30
2014,08,24,09,33,18.30
2014,08,24,09,34,18.40
2014,08,24,09,35,18.40
2014,08,24,09,36,18.40
2014,08,24,09,37,18.40
2014,08,24,09,38,18.50
2014,08,24,09,39,18.50
2014,08,24,09,40,18.50
2014,08,24,09,41,18.50
2014,08,24,09,42,18.50
2014,08,24,09,43,18.50
2014,08,24,09,44,18.50
2014,08,24,09,45,18.50
2014,08,24,09,46,18.60
2014,08,24,09,47,18.60
2014,08,24,09,48,18.70
2014,08,24,09,49,18.70
2014,08,24,09,50,18.70
2014,08,24,09,51,18.70
2014,08,24,09,52,18.80
2014,08,24,09,53,18.80
2014,08,24,09,54,18.70
2014,08,24,09,55,18.70
2014,08,24,09,56,18.70
2014,08,24,09,57,18.70
2014,08,24,09,58,18.80
2014,08,24,09,59,18.80
2014,08,24,10,00,18.80
2014,08,24,10,01,18.80
2014,08,24,10,02,18.70
2014,08,24,10,03,18.70
2014,08,24,10,04,18.70
2014,08,24,10,05,18.70
2014,08,24,10,06,18.70
2014,08,24,10,07,18.70
2014,08,24,10,08,18.80
2014,08,24,10,09,18.80
2014,08,24,10,10,18.80
2014,08,24,10,11,18.80
2014,08,24,10,12,18.80
2014,08,24,10,13,18.80
2014,08,24,10,14,18.80
2014,08,24,10,15,18.80
2014,08,24,10,16,18.90
2014,08,24,10,17,18.90
2014,08,24,10,18,18.90
2014,08,24,10,19,18.90
2014,08,24,10,20,19.00
2014,08,24,10,21,19.00
2014,08,24,10,22,19.00
2014,08,24,10,23,19.00
2014,08,24,10,24,19.00
2014,08,24,10,25,19.00
2014,08,24,10,26,19.10
2014,08,24,10,27,19.10
2014,08,24,10,28,19.10
2014,08,24,10,29,19.10
2014,08,24,10,30,19.20
2014,08,24,10,31,19.20
2014,08,24,10,32,19.30
2014,08,24,10,33,19.30
2014,08,24,10,34,19.30
2014,08,24,10,35,19.30
2014,08,24,10,36,19.30
2014,08,24,10,37,19.30
2014,08,24,10,38,19.30
2014,08,24,10,39,19.20
2014,08,24,10,40,19.20
2014,08,24,10,41,19.20
2014,08,24,10,42,19.20
2014,08,24,10,43,19.20
2014,08,24,10,44,19.30
2014,08,24,10,45,19.30
2014,08,24,10,46,19.40
2014,08,24,10,47,19.50
2014,08,24,10,48,19.50
2014,08,24,10,49,19.60
2014,08,24,10,50,19.60
2014,08,24,10,51,19.70
2014,08,24,10,52,19.70
2014,08,24,10,53,19.80
2014,08,24,10,54,19.70
2014,08,24,10,55,19.70
2014,08,24,10,56,19.70
2014,08,24,10,57,19.70
2014,08,24,10,58,19.70
2014,08,24,10,59,19.60
2014,08,24,11,00,19.60
2014,08,24,11,01,19.50
2014,08,24,11,02,19.50
2014,08,24,11,03,19.50
2014,08,24,11,04,19.50
2014,08,24,11,05,19.50
2014,08,24,11,06,19.60
2014,08,24,11,07,19.60
2014,08,24,11,08,19.60
2014,08,24,11,09,19.60
2014,08,24,11,10,19.50
2014,08,24,11,11,19.50
2014,08,24,11,12,19.60
2014,08,24,11,13,19.60
2014,08,24,11,14,19.60
2014,08,24,11,15,19.60
2014,08,24,11,16,19.70
2014,08,24,11,17,19.70
2014,08,24,11,18,19.70
2014,08,24,11,19,19.70
2014,08,24,11,20,19.70
2014,08,24,11,21,19.70
2014,08,24,11,22,19.70
2014,08,24,11,23,19.70
2014,08,24,11,24,19.60
2014,08,24,11,25,19.60
2014,08,24,11,26,19.60
2014,08,24,11,27,19.70
2014,08,24,11,28,19.70
2014,08,24,11,29,19.70
2014,08,24,11,30,19.70
2014,08,24,11,31,19.70
2014,08,24,11,32,19.70
2014,08,24,11,33,19.70
2014,08,24,11,34,19.70
2014,08,24,11,35,19.70
2014,08,24,11,36,19.70
2014,08,24,11,37,19.80
2014,08,24,11,38,19.80
2014,08,24,11,39,19.90
2014,08,24,11,40,20.00
2014,08,24,11,41,20.10
2014,08,24,11,42,20.20
2014,08,24,11,43,20.20
2014,08,24,11,44,20.20
2014,08,24,11,45,20.30
2014,08,24,11,46,20.30
2014,08,24,11,47,20.40
2014,08,24,11,48,20.50
2014,08,24,11,49,20.60
2014,08,24,11,50,20.70
2014,08,24,11,51,20.80
2014,08,24,11,52,20.80
2014,08,24,11,53,20.70
2014,08,24,11,54,20.60
2014,08,24,11,55,20.60
2014,08,24,11,56,20.50
2014,08,24,11,57,20.40
2014,08,24,11,58,20.40
2014,08,24,11,59,20.40
2014,08,24,12,00,20.40
2014,08,24,12,01,20.40
2014,08,24,12,02,20.40
2014,08,24,12,03,20.30
2014,08,24,12,04,20.20
2014,08,24,12,05,20.30
2014,08,24,12,06,20.30
2014,08,24,12,07,20.50
2014,08,24,12,08,20.60
2014,08,24,12,09,20.60
2014,08,24,12,10,20.70
2014,08,24,12,11,20.80
2014,08,24,12,12,20.90
2014,08,24,12,13,21.00
2014,08,24,12,14,21.10
2014,08,24,12,15,21.20
2014,08,24,12,16,21.30
2014,08,24,12,17,21.40
2014,08,24,12,18,21.50
2014,08,24,12,19,21.60
2014,08,24,12,20,21.70
2014,08,24,12,21,21.80
2014,08,24,12,22,21.80
2014,08,24,12,23,21.90
2014,08,24,12,24,21.90
2014,08,24,12,25,21.90
2014,08,24,12,26,21.90
2014,08,24,12,27,21.80
2014,08,24,12,28,21.80
2014,08,24,12,29,21.80
2014,08,24,12,30,21.80
2014,08,24,12,31,21.90
2014,08,24,12,32,21.90
2014,08,24,12,33,21.90
2014,08,24,12,34,21.90
2014,08,24,12,35,22.00
2014,08,24,12,36,22.00
2014,08,24,12,37,22.10
2014,08,24,12,38,22.10
2014,08,24,12,39,22.00
2014,08,24,12,40,22.00
2014,08,24,12,41,21.90
2014,08,24,12,42,21.80
2014,08,24,12,43,21.80
2014,08,24,12,44,21.70
2014,08,24,12,45,21.60
2014,08,24,12,46,21.60
2014,08,24,12,47,21.50
2014,08,24,12,48,21.50
2014,08,24,12,49,21.40
2014,08,24,12,50,21.40
2014,08,24,12,51,21.30
2014,08,24,12,52,21.30
2014,08,24,12,53,21.30
2014,08,24,12,54,21.20
2014,08,24,12,55,21.20
2014,08,24,12,56,21.30
2014,08,24,12,57,21.30
2014,08,24,12,58,21.40
2014,08,24,12,59,21.50
2014,08,24,13,00,21.50
2014,08,24,13,01,21.60
2014,08,24,13,02,21.60
2014,08,24,13,03,21.70
2014,08,24,13,04,21.80
2014,08,24,13,05,21.90
2014,08,24,13,06,21.90
2014,08,24,13,07,22.00
2014,08,24,13,08,22.10
2014,08,24,13,09,22.20
2014,08,24,13,10,22.20
2014,08,24,13,11,22.20
2014,08,24,13,12,22.20
2014,08,24,13,13,22.20
2014,08,24,13,14,22.10
2014,08,24,13,15,22.10
2014,08,24,13,16,22.00
2014,08,24,13,17,21.80
2014,08,24,13,18,21.80
2014,08,24,13,19,21.70
2014,08,24,13,20,21.70
2014,08,24,13,21,21.60
2014,08,24,13,22,21.60
2014,08,24,13,23,21.70
2014,08,24,13,24,21.70
2014,08,24,13,25,21.80
2014,08,24,13,26,21.90
2014,08,24,13,27,21.90
2014,08,24,13,28,21.90
2014,08,24,13,29,21.90
2014,08,24,13,30,21.90
2014,08,24,13,31,21.90
2014,08,24,13,32,21.90
2014,08,24,13,33,21.80
2014,08,24,13,34,21.80
2014,08,24,13,35,21.80
2014,08,24,13,36,21.80
2014,08,24,13,37,21.80
2014,08,24,13,38,21.80
2014,08,24,13,39,21.80
2014,08,24,13,40,21.90
2014,08,24,13,41,21.90
2014,08,24,13,42,21.90
2014,08,24,13,43,22.00
2014,08,24,13,44,22.00
2014,08,24,13,45,22.00
2014,08,24,13,46,22.00
2014,08,24,13,47,22.00
2014,08,24,13,48,22.10
2014,08,24,13,49,22.10
2014,08,24,13,50,22.10
2014,08,24,13,51,22.20
2014,08,24,13,52,22.20
2014,08,24,13,53,22.30
2014,08,24,13,54,22.40
2014,08,24,13,55,22.50
2014,08,24,13,56,22.50
2014,08,24,13,57,22.50
2014,08,24,13,58,22.60
2014,08,24,13,59,22.60
2014,08,24,14,00,22.60
2014,08,24,14,01,22.60
2014,08,24,14,02,22.60
2014,08,24,14,03,22.70
2014,08,24,14,04,22.80
2014,08,24,14,05,22.90
2014,08,24,14,06,23.00
2014,08,24,14,07,23.10
2014,08,24,14,08,23.20
2014,08,24,14,09,23.30
2014,08,24,14,10,23.30
2014,08,24,14,11,23.40
2014,08,24,14,12,23.50
2014,08,24,14,13,23.60
2014,08,24,14,14,23.70
2014,08,24,14,15,23.70
2014,08,24,14,16,23.70
2014,08,24,14,17,23.80
2014,08,24,14,18,23.90
2014,08,24,14,19,23.90
2014,08,24,14,20,23.90
2014,08,24,14,21,23.90
2014,08,24,14,22,23.90
2014,08,24,14,23,23.90
2014,08,24,14,24,23.80
2014,08,24,14,25,23.80
2014,08,24,14,26,23.80
2014,08,24,14,27,23.80
2014,08,24,14,28,23.80
2014,08,24,14,29,23.90
2014,08,24,14,30,23.90
2014,08,24,14,31,23.90
2014,08,24,14,32,23.90
2014,08,24,14,33,23.90
2014,08,24,14,34,23.90
2014,08,24,14,35,23.90
2014,08,24,14,36,23.90
2014,08,24,14,37,23.90
2014,08,24,14,38,23.90
2014,08,24,14,39,23.90
2014,08,24,14,40,23.90
2014,08,24,14,41,24.00
2014,08,24,14,42,24.00
2014,08,24,14,43,24.00
2014,08,24,14,44,24.00
2014,08,24,14,45,24.00
2014,08,24,14,46,23.90
2014,08,24,14,47,23.80
2014,08,24,14,48,23.80
2014,08,24,14,49,23.70
2014,08,24,14,50,23.60
2014,08,24,14,51,23.60
2014,08,24,14,52,23.60
2014,08,24,14,53,23.70
2014,08,24,14,54,23.70
2014,08,24,14,55,23.70
2014,08,24,14,56,23.70
2014,08,24,14,57,23.70
2014,08,24,14,58,23.70
2014,08,24,14,59,23.70
2014,08,24,15,00,23.70
2014,08,24,15,01,23.70
2014,08,24,15,02,23.70
2014,08,24,15,03,23.70
2014,08,24,15,04,23.70
2014,08,24,15,05,23.70
2014,08,24,15,06,23.80
2014,08,24,15,07,23.80
2014,08,24,15,08,23.80
2014,08,24,15,09,23.90
2014,08,24,15,10,23.90
2014,08,24,15,11,23.90
2014,08,24,15,12,23.90
2014,08,24,15,13,23.80
2014,08,24,15,14,23.80
2014,08,24,15,15,23.80
2014,08,24,15,16,23.90
2014,08,24,15,17,24.00
2014,08,24,15,18,24.10
2014,08,24,15,19,24.20
2014,08,24,15,20,24.20
2014,08,24,15,21,24.30
2014,08,24,15,22,24.30
2014,08,24,15,23,24.40
2014,08,24,15,24,24.50
2014,08,24,15,25,24.60
2014,08,24,15,26,24.70
2014,08,24,15,27,24.70
2014,08,24,15,28,24.70
2014,08,24,15,29,24.70
2014,08,24,15,30,24.70
2014,08,24,15,31,24.80
2014,08,24,15,32,24.80
2014,08,24,15,33,24.90
2014,08,24,15,34,24.90
2014,08,24,15,35,24.90
2014,08,24,15,36,25.00
2014,08,24,15,37,25.00
2014,08,24,15,38,25.10
2014,08,24,15,39,25.10
2014,08,24,15,40,25.20
2014,08,24,15,41,25.20
2014,08,24,15,42,25.20
2014,08,24,15,43,25.20
2014,08,24,15,44,25.20
2014,08,24,15,45,25.10
2014,08,24,15,46,25.10
2014,08,24,15,47,25.10
2014,08,24,15,48,25.10
2014,08,24,15,49,25.20
2014,08,24,15,50,25.20
2014,08,24,15,51,25.30
2014,08,24,15,52,25.30
2014,08,24,15,53,25.40
2014,08,24,15,54,25.50
2014,08,24,15,55,25.60
2014,08,24,15,56,25.70
2014,08,24,15,57,25.80
2014,08,24,15,58,25.90
2014,08,24,15,59,26.00
2014,08,24,16,00,26.00
2014,08,24,16,01,26.10
2014,08,24,16,02,26.10
2014,08,24,16,03,26.00
2014,08,24,16,04,25.90
2014,08,24,16,05,25.90
2014,08,24,16,06,25.80
2014,08,24,16,07,25.70
2014,08,24,16,08,25.70
2014,08,24,16,09,25.70
2014,08,24,16,10,25.70
2014,08,24,16,11,25.70
2014,08,24,16,12,25.70
2014,08,24,16,13,25.70
2014,08,24,16,14,25.70
2014,08,24,16,15,25.70
2014,08,24,16,16,25.70
2014,08,24,16,17,25.70
2014,08,24,16,18,25.70
2014,08,24,16,19,25.70
2014,08,24,16,20,25.70
2014,08,24,16,21,25.70
2014,08,24,16,22,25.70
2014,08,24,16,23,25.60
2014,08,24,16,24,25.60
2014,08,24,16,25,25.60
2014,08,24,16,26,25.60
2014,08,24,16,27,25.50
2014,08,24,16,28,25.50
2014,08,24,16,29,25.40
2014,08,24,16,30,25.40
2014,08,24,16,31,25.40
2014,08,24,16,32,25.40
2014,08,24,16,33,25.50
2014,08,24,16,34,25.50
2014,08,24,16,35,25.60
2014,08,24,16,36,25.60
2014,08,24,16,37,25.60
2014,08,24,16,38,25.60
2014,08,24,16,39,25.70
2014,08,24,16,40,25.70
2014,08,24,16,41,25.70
2014,08,24,16,42,25.80
2014,08,24,16,43,25.80
2014,08,24,16,44,25.90
2014,08,24,16,45,26.00
2014,08,24,16,46,26.10
2014,08,24,16,47,26.10
2014,08,24,16,48,26.10
2014,08,24,16,49,26.10
2014,08,24,16,50,26.20
2014,08,24,16,51,26.20
2014,08,24,16,52,26.10
2014,08,24,16,53,26.10
2014,08,24,16,54,26.00
2014,08,24,16,55,26.00
2014,08,24,16,56,26.00
2014,08,24,16,57,26.00
2014,08,24,16,58,26.00
2014,08,24,16,59,26.00
2014,08,24,17,00,26.10
2014,08,24,17,01,26.10
2014,08,24,17,02,26.20
2014,08,24,17,03,26.30
2014,08,24,17,04,26.30
2014,08,24,17,05,26.30
2014,08,24,17,06,26.40
2014,08,24,17,07,26.30
2014,08,24,17,08,26.30
2014,08,24,17,09,26.30
2014,08,24,17,10,26.40
2014,08,24,17,11,26.30
2014,08,24,17,12,26.30
2014,08,24,17,13,26.20
2014,08,24,17,14,26.20
2014,08,24,17,15,26.10
2014,08,24,17,16,26.00
2014,08,24,17,17,26.00
2014,08,24,17,18,25.90
2014,08,24,17,19,25.90
2014,08,24,17,20,25.90
2014,08,24,17,21,25.90